Theta_e
326 330 331 333 331 327 326 326 323 324 328 325 322 324 332 339 323 318 348 364 339 340 356 349 345 348 347 348 346 344 346 347 350 353 352 353 352 351 352 351 353 354 352 355 357 355 355 356 356 357 356 356 356 355 355 354 352 351 349 348 347 346 346 344 343 342 341 341 341 341 340 337 337 340 340 339 336 333 333 334 336 338 339 337 334 332 331
325 326 325 328 327 325 324 325 326 325 326 326 324 328 336 337 328 331 351 358 349 346 347 344 343 343 343 347 348 347 347 350 354 356 355 354 352 352 352 351 352 353 352 354 355 356 355 353 355 356 355 356 355 354 354 353 352 351 349 348 347 346 346 345 343 342 342 342 342 342 340 338 339 341 340 339 338 336 335 336 337 338 339 337 335 333 334
321 323 327 327 324 326 323 322 329 326 323 326 323 325 335 333 329 337 346 347 348 345 343 345 343 343 346 350 350 351 352 355 359 359 357 355 353 352 353 353 353 353 353 353 355 357 354 352 355 355 355 355 354 354 354 352 352 351 349 348 347 346 346 345 344 343 342 342 343 342 341 340 341 341 340 340 338 336 337 338 337 339 340 338 335 335 334
317 321 324 326 327 327 321 319 325 324 322 327 326 328 336 333 329 337 337 335 340 343 345 348 347 345 345 346 350 354 354 356 359 359 358 357 356 357 357 357 357 356 356 356 356 356 353 352 354 354 354 355 353 353 353 352 352 350 348 348 347 346 346 344 344 343 342 342 342 341 341 341 341 341 340 339 337 335 337 338 338 339 340 338 336 335 334
317 322 323 326 325 320 320 327 333 330 332 337 337 339 343 342 341 341 333 330 341 349 346 344 346 345 342 343 349 350 352 355 356 356 358 359 359 360 360 360 359 357 356 355 353 351 351 352 354 354 354 354 353 353 352 351 351 350 348 348 347 346 346 344 343 342 341 341 340 337 336 338 341 342 340 338 337 336 337 337 338 339 339 338 336 335 334
317 325 326 325 320 317 328 347 346 338 339 340 340 340 341 345 351 351 341 338 348 355 348 345 347 343 341 344 345 344 348 352 354 355 356 358 361 363 363 362 360 358 356 351 346 348 350 352 353 354 353 354 353 352 351 350 350 348 348 347 346 346 345 343 341 342 340 339 337 332 332 336 340 342 340 338 336 336 336 336 337 339 339 338 337 335 334
324 328 324 318 318 324 341 351 342 336 337 339 342 341 341 345 350 357 356 349 350 352 347 344 345 343 347 351 349 348 348 349 354 358 356 358 363 364 364 367 365 361 358 351 344 345 349 350 352 353 353 354 353 350 349 348 347 347 347 346 346 345 344 342 340 341 341 339 335 331 330 334 339 341 341 339 336 335 335 335 336 337 338 337 336 334 334
327 324 317 315 322 336 348 344 340 339 339 340 342 339 339 343 344 352 358 353 349 347 343 345 349 348 350 354 351 351 349 345 350 358 357 357 362 366 371 380 376 362 354 350 345 345 347 348 350 352 352 353 353 350 347 346 345 345 345 345 345 344 344 342 340 341 341 338 334 332 331 333 338 341 341 340 338 336 336 335 336 337 337 336 336 335 334
333 328 321 322 326 332 342 344 342 340 337 339 343 337 335 340 340 344 351 349 347 346 342 344 349 347 348 350 345 346 348 347 348 353 352 352 361 369 371 368 364 353 347 349 348 347 348 347 348 351 352 351 351 348 346 345 344 343 343 343 344 344 343 342 341 341 340 336 333 333 333 333 337 340 340 340 339 337 337 338 338 338 337 336 335 335 335
341 335 323 324 325 326 340 350 344 337 333 337 345 342 337 339 340 342 347 344 344 344 340 339 343 344 347 348 344 344 350 353 353 350 345 346 354 358 351 343 342 345 347 350 349 348 349 348 348 349 350 350 350 347 345 345 344 343 342 343 343 343 343 341 340 339 338 336 333 331 329 331 336 339 340 340 340 338 338 338 338 338 337 336 335 335 336
344 338 328 328 328 330 342 347 341 336 334 336 341 341 338 340 341 343 348 347 344 344 342 342 343 344 344 346 346 346 346 349 350 351 351 351 349 346 341 338 339 344 348 349 349 350 350 349 349 350 350 351 349 347 345 344 343 342 341 341 341 341 340 339 339 338 337 336 333 329 327 330 336 340 341 340 339 338 338 338 338 337 337 336 336 336 334
342 341 333 330 331 335 341 341 336 333 335 340 337 332 333 341 343 342 346 349 349 347 346 344 345 346 345 344 344 343 343 344 349 356 361 359 353 350 349 348 344 346 350 350 350 351 350 350 351 350 349 349 347 346 345 343 342 342 341 341 341 338 337 338 337 336 335 334 332 329 328 332 337 340 340 338 336 335 336 338 337 337 337 335 334 332 330
338 340 333 327 332 340 339 336 335 335 340 346 339 331 335 344 344 340 340 340 341 342 342 341 342 343 344 341 338 341 345 345 347 351 349 347 348 350 350 351 350 349 350 349 349 351 350 350 351 350 349 348 345 345 344 341 340 341 340 339 338 336 336 336 336 336 335 331 330 328 327 332 338 340 340 339 337 335 335 337 337 336 335 332 331 329 327
336 340 337 329 333 340 336 333 338 342 346 347 339 336 342 343 340 340 339 337 338 339 341 343 341 339 339 339 341 346 351 350 351 351 350 352 357 355 348 349 350 348 348 348 348 349 349 349 350 349 348 346 344 342 341 339 339 339 337 336 335 335 336 336 335 336 334 331 330 329 331 335 338 339 338 338 337 336 335 336 336 333 330 329 330 328 327
342 346 344 337 337 339 335 340 350 351 346 344 341 340 344 341 339 340 339 339 341 340 340 343 343 342 342 346 350 352 355 357 357 357 359 363 366 357 348 346 347 345 345 345 344 345 346 346 346 345 344 344 343 340 338 338 338 337 336 335 334 335 336 336 336 336 334 333 333 334 335 336 337 337 337 336 335 336 336 334 332 329 328 328 329 329 329
351 347 345 345 347 343 335 339 348 344 340 343 341 338 338 337 336 337 338 340 341 340 341 343 343 343 346 352 355 356 358 360 360 361 364 364 359 354 349 348 346 343 341 342 341 342 343 343 343 343 343 342 340 338 337 337 338 337 335 334 334 335 336 337 337 336 335 335 336 336 336 337 337 336 336 335 335 336 334 331 329 328 327 328 329 330 331
349 346 346 350 352 344 334 334 338 335 335 338 336 332 335 335 334 333 334 337 337 337 338 339 340 343 345 348 353 357 358 358 361 362 358 350 347 349 349 347 345 341 340 341 341 340 341 342 342 342 343 341 339 337 336 337 337 337 336 335 336 335 335 335 336 336 335 335 336 336 337 337 336 335 334 334 335 334 331 329 328 327 327 329 331 332 331
340 340 342 345 344 337 331 331 332 331 332 333 331 331 333 333 331 331 331 332 332 332 332 333 335 340 341 342 347 352 354 356 359 361 354 341 336 340 346 346 344 341 340 339 339 339 339 340 341 341 341 341 339 337 337 337 337 336 336 337 336 336 336 336 335 335 336 335 334 334 335 336 335 334 334 334 333 331 329 328 327 327 328 331 332 331 329
342 342 342 342 339 335 331 331 329 329 330 330 331 333 334 333 332 331 330 330 330 330 331 332 332 333 335 337 342 346 348 351 355 359 359 348 336 335 341 344 342 339 339 338 338 338 337 337 338 339 339 338 337 336 336 336 336 335 335 335 335 335 335 334 333 333 332 331 331 332 334 335 333 332 332 333 332 330 328 327 327 328 331 332 330 328 325
346 344 341 341 338 334 333 331 327 327 328 327 330 332 333 334 333 330 330 330 330 330 331 330 330 330 331 334 338 343 346 349 350 352 353 346 338 336 340 341 340 338 338 337 337 337 335 335 335 335 334 333 331 329 329 329 330 330 330 330 328 328 328 329 331 330 328 327 329 330 332 332 330 330 330 329 329 328 327 327 328 330 331 331 328 325 323
347 342 341 342 337 331 331 331 329 328 327 327 329 329 329 332 332 330 330 330 328 329 330 329 329 330 331 332 335 341 346 349 349 348 345 339 336 338 340 340 339 339 337 336 337 336 334 333 331 331 330 329 327 326 325 324 325 326 326 327 326 326 327 328 329 326 323 324 325 326 328 329 328 327 327 327 327 327 327 328 329 329 329 328 325 323 322
344 342 342 342 337 331 330 329 328 327 326 326 329 329 328 331 333 332 331 329 328 328 329 328 329 331 331 331 333 338 344 348 348 344 340 336 336 337 339 338 338 337 336 336 336 335 333 331 328 326 326 326 326 326 325 324 324 324 325 326 327 326 326 325 324 323 323 324 325 325 326 326 325 325 326 326 328 328 329 329 329 327 326 325 323 322 321
343 342 341 339 335 330 328 327 327 327 326 325 326 326 326 328 329 328 327 327 327 327 326 325 326 329 331 331 332 335 338 340 340 339 338 338 337 337 337 336 334 333 334 336 336 334 331 327 324 324 325 325 325 325 325 325 325 324 324 325 325 325 324 324 324 324 324 325 324 324 324 324 324 325 325 325 326 327 327 327 326 324 323 322 321 321 320
339 339 337 333 329 325 324 325 326 326 325 324 324 324 323 323 323 324 324 324 325 326 326 324 322 326 330 330 330 334 336 335 335 336 337 339 339 339 337 334 332 333 335 335 335 333 330 326 325 325 324 324 325 326 326 325 326 325 325 325 325 325 326 326 325 324 325 326 325 323 323 324 324 324 324 323 322 323 323 324 323 322 321 321 321 320 320
331 331 329 325 325 325 325 324 324 325 325 325 325 326 325 324 323 323 323 324 323 323 326 327 324 324 327 327 326 329 332 332 333 337 339 339 338 338 336 333 331 332 334 334 334 332 329 326 326 326 326 327 327 327 327 327 327 327 326 326 326 325 325 325 325 326 327 327 326 324 324 324 323 323 324 323 322 321 320 321 320 321 321 321 319 319 319
327 327 326 323 323 325 324 323 324 325 324 323 324 327 328 327 325 323 321 322 321 321 323 328 327 323 323 323 323 324 327 328 329 332 335 336 337 336 335 332 331 331 332 332 332 331 329 328 328 327 327 328 328 329 330 330 330 329 328 328 329 326 324 323 325 325 327 327 325 324 324 324 324 322 322 322 322 321 320 319 319 319 319 319 318 317 317
323 326 329 329 326 325 324 324 324 323 322 321 322 323 323 321 321 320 318 319 320 319 320 322 324 322 321 320 320 321 323 323 324 325 329 333 335 335 335 334 331 330 330 330 330 330 330 329 329 328 329 329 329 330 330 330 330 330 329 329 329 326 322 321 322 324 326 327 326 325 324 323 322 322 322 322 322 322 320 319 318 317 317 316 316 315 315
320 321 326 328 327 326 324 321 319 319 319 320 320 320 319 317 317 319 320 320 320 320 318 318 319 320 320 320 319 320 321 321 321 322 324 328 331 333 334 334 331 330 330 330 330 331 330 330 330 330 330 330 330 330 329 329 329 330 330 328 326 323 321 321 322 323 325 326 326 326 325 323 322 322 323 323 322 321 319 319 317 317 317 316 315 313 312
318 319 320 321 322 321 320 318 318 319 319 318 318 318 319 318 318 319 321 321 322 321 319 317 317 318 318 318 318 320 322 323 322 321 322 325 329 332 334 333 331 329 330 331 330 331 331 331 330 331 331 331 330 329 328 329 329 330 330 329 327 326 326 326 327 328 328 328 328 326 325 323 323 323 322 321 320 319 318 318 318 319 318 316 314 312 311
318 318 318 318 318 318 318 319 319 319 319 319 319 319 319 319 320 320 321 322 323 322 320 317 316 316 316 315 316 318 320 320 319 319 322 326 329 331 332 333 331 330 330 330 330 330 330 330 331 331 331 331 330 329 329 329 330 331 331 330 330 330 330 330 330 330 329 328 327 326 325 323 322 322 321 320 319 319 318 319 319 319 318 315 313 312 312
317 316 316 317 317 317 318 319 319 319 320 320 319 319 319 320 321 321 322 323 324 322 321 319 318 317 315 314 315 316 317 318 318 320 324 329 331 332 332 332 332 332 331 330 330 330 330 330 332 332 332 331 331 331 332 331 331 331 330 329 329 330 329 329 329 329 328 327 327 326 325 324 323 323 322 321 320 319 318 319 319 319 317 314 313 314 314
318 319 318 317 318 318 318 318 319 318 320 319 319 320 320 320 320 321 322 323 322 321 321 321 320 317 315 314 315 317 317 318 319 322 326 330 331 331 332 332 332 332 332 330 330 331 331 331 333 334 334 333 333 333 333 331 330 330 329 329 329 329 329 328 328 327 327 327 327 326 326 325 324 323 323 322 321 320 319 319 319 318 317 315 315 316 315
322 323 320 318 319 319 319 319 319 319 320 320 320 320 321 321 322 323 323 322 321 321 321 320 316 314 314 314 316 316 317 319 321 324 326 328 330 330 330 331 331 332 331 331 331 331 331 331 331 332 333 333 333 332 332 331 329 329 329 329 330 329 328 328 327 327 327 326 326 325 325 324 323 324 323 323 322 321 320 320 320 319 317 316 316 317 315
320 321 319 318 319 319 318 318 319 320 321 321 320 321 321 320 321 323 324 323 322 322 320 317 314 314 315 315 316 317 319 324 329 329 326 327 329 329 328 329 329 329 330 330 329 329 329 328 328 329 332 332 332 331 331 331 330 329 329 329 328 327 327 327 327 326 326 326 325 325 324 323 323 323 323 323 322 320 320 320 320 319 318 316 317 316 315
318 319 319 320 320 319 319 319 318 319 320 320 320 321 320 318 318 321 322 322 321 320 318 316 315 316 316 315 316 318 320 324 327 326 326 327 328 327 328 328 328 327 327 327 327 327 328 327 327 328 329 329 329 329 330 330 330 329 328 328 328 328 328 327 326 326 325 325 325 325 323 322 321 321 321 321 320 320 320 321 320 320 319 317 317 316 315
317 319 320 320 318 317 318 318 317 318 320 321 320 321 320 318 317 318 319 319 318 318 317 316 316 316 315 315 316 318 321 322 323 325 327 328 327 327 327 327 326 326 327 327 327 328 327 327 326 327 327 327 327 328 329 329 329 328 327 327 327 327 326 326 325 325 324 324 324 324 321 319 317 318 318 318 318 318 319 319 320 320 319 317 317 316 315
316 317 320 319 316 314 315 315 315 316 318 319 319 319 318 316 316 316 317 317 318 318 318 317 317 316 316 316 316 319 323 325 325 326 327 326 325 326 326 325 325 325 326 327 329 328 328 327 327 326 327 327 327 327 327 327 327 327 325 325 325 324 324 323 323 323 323 323 322 322 320 318 317 317 317 317 317 317 317 317 317 317 316 315 316 316 314
315 315 317 317 315 314 314 315 315 315 316 316 316 315 316 317 317 317 317 317 317 317 317 318 317 317 317 316 317 320 325 326 326 327 326 324 323 324 324 323 324 324 324 326 328 328 327 327 326 325 324 324 324 324 325 324 324 323 323 322 322 322 322 322 322 323 323 322 321 321 320 319 318 318 318 318 317 316 316 316 316 315 314 314 314 314 312
317 316 315 315 315 315 315 315 315 314 315 316 315 315 317 318 318 317 316 316 316 317 317 317 317 317 316 316 318 321 324 325 326 326 324 323 323 324 323 323 323 323 323 325 327 327 326 325 324 323 322 321 321 321 322 321 321 321 321 321 320 320 321 321 322 322 322 321 320 320 320 319 319 319 319 318 316 316 316 316 315 315 314 313 312 312 311
319 318 316 315 315 315 314 314 314 314 315 315 315 316 318 319 318 316 316 315 316 317 317 316 317 318 318 318 319 322 323 324 324 323 323 323 323 323 323 323 323 324 325 325 326 325 324 323 322 321 321 320 320 319 319 319 318 318 318 318 317 317 318 319 320 321 321 320 320 319 319 319 319 319 319 318 317 316 316 316 315 315 314 312 312 311 310
319 317 315 315 315 315 314 314 314 314 315 316 316 316 318 318 317 316 316 315 316 317 317 317 319 319 319 319 321 323 323 323 322 321 322 322 321 321 323 324 323 323 324 324 323 323 322 321 321 320 319 318 318 318 317 317 317 316 315 314 314 314 314 314 315 317 318 319 319 319 319 319 319 318 318 318 317 317 317 316 315 315 314 313 312 311 311
318 317 316 315 315 315 314 314 315 315 315 316 316 316 317 317 317 316 316 316 317 317 317 318 320 321 320 320 322 323 322 321 321 321 321 321 320 321 324 324 322 322 324 323 321 321 321 320 319 319 318 317 317 317 316 316 316 314 313 312 312 312 311 310 310 310 312 314 316 317 317 318 318 318 318 317 317 317 316 316 316 316 315 314 313 312 311
318 318 318 317 315 315 315 315 314 315 316 316 316 316 316 317 317 317 317 317 317 317 318 318 319 320 320 320 321 321 321 321 322 322 322 322 321 321 322 323 322 323 325 323 321 320 320 319 318 318 318 317 316 316 315 315 314 313 312 312 311 310 310 309 308 308 308 308 310 310 311 313 314 315 316 317 317 317 316 316 316 316 315 314 314 313 312
318 318 318 317 316 317 316 315 314 314 315 316 316 316 316 317 317 317 317 317 317 318 318 318 319 320 320 320 320 321 321 321 322 321 321 321 322 322 322 322 322 322 323 322 320 320 320 318 318 317 318 317 316 314 312 311 309 308 308 309 309 308 307 307 307 307 307 307 307 307 307 307 307 308 310 312 314 315 316 317 316 316 315 315 314 313 312
318 318 318 318 318 318 316 315 315 316 316 316 316 316 316 317 317 317 318 318 318 319 320 319 320 321 321 320 320 320 320 321 322 321 321 322 324 322 321 321 323 323 322 321 320 320 318 317 318 318 318 316 314 310 308 307 307 305 305 306 307 306 306 306 306 306 306 306 306 305 305 305 305 306 306 307 309 312 314 315 316 315 315 314 314 313 313
317 317 317 318 318 317 317 317 317 316 316 316 316 316 317 317 318 318 318 319 319 320 320 320 320 321 321 321 321 321 320 320 321 321 321 321 322 321 320 321 323 323 322 320 319 319 317 317 318 318 316 313 310 308 307 307 307 305 305 306 307 306 306 306 306 305 305 305 305 305 304 304 304 304 305 306 307 309 311 313 314 314 314 313 314 314 313
316 316 316 317 318 317 317 316 315 315 315 318 319 318 317 317 318 318 318 320 321 321 320 320 321 320 319 320 321 322 321 321 321 321 321 320 321 320 320 321 323 323 321 319 318 317 317 317 317 317 314 311 309 308 308 308 307 307 306 307 307 307 307 306 306 306 305 305 305 305 304 304 304 304 304 305 306 307 309 311 312 311 311 312 312 313 312
316 317 317 317 317 316 315 315 315 315 315 316 317 316 316 316 318 318 318 319 320 321 320 320 320 319 318 318 320 321 321 321 322 322 321 320 320 320 320 320 321 321 320 318 317 316 316 316 316 315 312 310 309 309 309 309 308 308 307 306 306 307 307 307 306 306 306 305 305 305 304 304 303 303 303 304 305 306 306 307 307 307 307 308 310 311 311
316 317 317 317 316 315 315 315 315 315 315 314 314 315 315 316 317 317 317 317 319 319 319 319 318 318 317 318 319 319 320 320 321 320 320 319 319 320 320 320 320 320 319 318 316 316 316 316 315 314 312 312 311 310 310 309 309 308 308 307 307 307 307 307 306 306 305 305 305 304 304 304 303 303 302 303 303 304 305 305 305 305 305 306 307 309 310
316 317 317 317 316 316 315 314 314 315 314 314 315 315 314 315 316 317 317 317 318 319 319 318 318 317 317 317 318 319 319 319 319 319 319 319 319 318 319 319 319 319 319 318 317 317 316 315 315 314 313 312 312 311 310 309 309 309 308 308 308 307 307 307 307 306 305 305 304 304 304 304 303 302 302 302 303 303 304 304 304 304 305 306 307 308 309
316 317 317 318 318 318 317 316 315 315 315 315 315 315 314 315 316 317 316 316 317 318 318 317 317 317 317 317 317 318 319 319 319 319 319 319 318 318 318 318 319 319 319 319 318 317 316 316 315 314 313 313 313 312 311 310 309 308 308 308 308 307 307 307 307 306 305 305 304 304 304 303 303 302 302 303 303 303 303 303 304 304 305 306 307 307 308
314 316 317 318 318 317 316 316 315 316 316 316 315 314 313 314 315 316 316 316 316 318 318 317 317 316 317 316 316 317 317 317 318 318 318 318 318 318 317 318 318 319 319 319 318 318 317 316 316 315 314 313 312 312 311 310 309 308 308 308 308 308 307 307 307 307 307 306 305 305 304 303 303 303 302 302 302 302 303 303 303 304 305 305 305 306 306
Wind_Speed
15 14 14 11 5 5 7 8 11 13 12 13 13 11 10 11 9 9 8 9 11 10 10 12 13 13 13 13 12 10 9 9 9 9 10 11 12 13 14 15 13 12 13 13 13 14 18 22 24 26 26 28 29 30 31 33 34 36 37 37 38 39 38 37 38 42 44 44 41 38 36 33 31 30 29 26 25 25 25 25 23 21 20 19 19 18 17
14 13 15 15 11 9 8 7 10 13 14 16 17 13 11 13 11 9 10 13 12 10 11 15 16 13 11 8 6 6 7 9 10 10 12 13 14 15 16 14 12 13 13 13 13 13 15 20 23 24 25 27 29 31 32 33 34 35 36 37 38 39 38 38 39 41 43 42 41 39 37 34 32 31 30 27 26 27 26 26 24 22 21 21 21 19 17
10 11 13 14 12 13 12 11 12 11 11 12 13 10 9 9 8 5 8 10 10 8 7 9 8 6 6 6 7 8 9 10 11 11 13 14 14 14 13 12 11 10 10 10 10 10 13 19 22 24 27 28 30 31 31 33 35 36 36 37 39 39 36 35 37 40 43 44 43 42 38 34 32 31 29 28 27 28 28 27 25 23 24 24 23 20 18
7 9 12 13 9 8 10 12 14 11 8 7 7 6 6 7 7 6 7 6 9 8 3 3 3 6 9 10 11 10 9 10 12 13 13 13 13 12 11 11 9 9 9 10 10 11 14 19 22 24 27 27 28 30 31 32 33 33 35 38 38 35 32 34 38 41 42 41 36 30 25 25 28 30 29 27 28 29 29 28 26 25 25 26 24 21 20
7 7 10 9 6 4 6 9 10 9 7 7 5 3 1 4 6 7 5 7 7 4 5 5 4 7 10 11 12 11 10 11 11 11 12 11 11 11 10 9 9 9 9 8 10 13 16 19 24 27 28 27 27 28 29 31 31 31 34 36 33 29 28 29 30 30 29 25 20 17 17 23 28 30 29 29 30 31 30 29 27 27 28 28 25 23 22
6 6 8 8 5 6 7 6 5 6 7 10 10 4 1 1 4 5 5 6 3 5 8 10 10 10 9 9 9 7 7 9 9 8 9 9 8 8 8 8 8 8 8 8 11 15 18 21 24 24 24 25 25 25 27 30 29 29 30 29 24 22 22 24 26 29 29 26 22 22 23 25 27 29 31 31 31 32 31 30 29 29 30 29 27 25 25
4 4 8 8 6 7 4 5 2 5 11 15 13 7 4 4 3 2 1 4 5 6 8 10 11 8 5 4 3 4 6 7 9 8 7 7 7 8 7 8 8 8 8 9 11 16 21 23 21 19 22 25 24 23 25 26 25 25 25 22 19 21 24 27 32 38 40 38 33 27 24 23 24 27 31 32 33 33 32 31 32 31 31 29 28 26 25
3 4 5 7 6 3 3 5 4 4 7 11 12 9 8 8 7 3 2 3 5 4 3 4 8 7 6 6 5 4 5 4 6 9 9 8 9 9 9 10 10 11 13 15 17 21 23 22 21 22 25 24 22 22 23 24 24 23 21 21 22 24 27 31 36 41 41 38 32 24 21 21 23 27 31 33 35 35 34 34 33 31 30 29 27 26 25
4 5 2 3 3 2 3 3 2 2 2 2 7 6 3 4 5 3 2 4 4 4 2 3 8 9 9 7 6 5 3 2 4 5 8 10 9 9 9 10 11 14 17 19 20 19 18 19 22 24 22 22 23 23 23 23 23 22 22 24 25 28 32 35 37 36 32 29 25 19 19 22 26 29 32 34 36 36 34 34 33 31 31 28 25 24 22
2 5 4 2 3 1 4 5 4 3 6 6 3 6 1 4 7 6 2 7 8 7 5 2 5 9 10 7 3 5 6 2 2 1 3 6 6 6 8 8 8 11 15 17 17 16 14 16 20 20 19 20 22 22 21 21 21 20 22 25 28 32 35 34 31 30 28 27 25 23 23 27 29 31 35 39 38 35 34 33 32 32 30 24 20 19 16
2 5 5 3 2 2 4 7 10 8 8 8 1 5 1 7 10 8 5 7 6 7 7 4 4 8 7 4 2 6 7 2 2 3 4 3 1 2 6 9 11 14 16 15 13 13 14 16 18 20 21 22 22 22 21 20 19 20 24 29 32 32 30 29 29 29 29 27 26 26 27 32 34 35 37 35 30 29 31 32 30 29 25 20 17 15 11
4 5 3 1 2 1 4 8 11 11 8 4 6 5 2 7 10 7 7 9 7 6 8 8 8 8 5 2 4 7 4 3 5 6 6 5 4 4 3 3 9 14 15 13 12 14 16 18 20 21 23 24 24 24 25 23 23 26 31 34 32 29 30 32 32 30 27 25 25 26 30 36 37 34 28 20 17 21 24 25 25 22 17 13 11 9 7
5 5 3 1 1 2 5 9 11 10 6 7 8 4 5 5 8 5 8 11 8 9 10 9 7 5 3 2 3 6 6 8 9 8 6 6 7 8 7 7 10 12 12 11 14 17 20 21 23 24 25 25 24 25 24 18 16 22 28 29 28 30 32 32 29 26 24 22 22 26 33 37 32 25 20 20 23 26 24 22 20 17 13 11 8 5 10
3 4 3 3 1 2 5 10 10 6 5 5 4 3 2 4 5 5 9 9 9 11 11 8 6 3 1 1 3 7 9 8 7 7 6 6 8 8 8 8 9 9 8 9 11 13 17 20 22 24 25 24 22 19 13 8 8 14 20 19 19 22 25 27 26 26 25 21 21 26 29 27 22 19 20 23 25 24 19 16 15 15 14 12 10 9 13
2 4 4 3 1 4 9 10 7 5 5 4 4 3 3 4 5 7 9 8 7 9 9 8 7 6 6 8 8 8 8 6 6 7 5 6 6 5 5 5 6 7 7 5 2 2 5 10 13 15 16 14 10 10 14 15 14 20 21 17 14 15 20 25 28 27 21 16 17 19 17 15 14 14 14 15 15 15 14 14 15 15 13 10 9 12 15
2 4 2 2 3 7 9 5 4 4 4 4 5 6 5 4 5 6 7 7 7 7 9 9 9 9 9 8 7 8 8 7 7 7 6 6 5 3 2 2 5 5 4 4 5 6 4 5 6 7 8 7 10 15 16 15 18 22 21 19 16 16 20 24 24 22 17 12 11 9 9 8 9 11 13 15 18 20 21 22 21 17 12 9 9 11 13
2 4 3 3 3 6 5 5 8 7 7 7 5 7 7 5 4 4 6 7 7 7 8 9 10 9 8 8 8 7 7 7 7 6 7 8 7 5 2 2 3 3 6 8 9 10 9 7 6 6 7 10 13 14 12 13 18 21 19 17 16 19 23 22 19 19 18 14 11 10 10 10 12 17 22 25 26 26 25 23 18 13 9 9 10 11 12
4 5 3 2 2 4 3 7 8 8 9 7 5 7 7 5 4 4 5 7 7 7 8 9 9 8 8 8 8 7 7 7 8 7 7 9 9 8 3 2 5 6 8 11 12 14 13 11 11 10 11 12 14 15 14 15 18 20 19 18 18 19 21 20 17 16 15 14 14 13 14 16 20 23 27 28 26 24 22 18 14 12 11 11 12 13 13
5 3 3 4 4 4 4 7 9 9 9 7 6 7 6 4 4 4 4 5 7 8 8 9 8 7 8 9 8 7 7 7 7 7 6 7 9 9 8 2 4 8 11 12 13 15 15 15 18 19 18 19 22 23 22 23 23 23 23 25 25 23 21 18 16 16 14 13 14 13 13 16 18 21 24 23 20 21 20 17 14 12 13 15 16 15 12
5 5 4 0 5 6 6 6 7 8 8 8 7 6 6 6 6 5 5 7 8 8 6 6 7 8 8 8 7 6 6 5 6 6 6 6 7 8 8 5 3 8 11 12 12 14 15 18 22 25 26 29 32 33 32 32 31 30 29 29 29 25 21 17 15 14 10 7 8 8 10 13 17 19 19 18 18 19 18 15 14 14 16 18 16 13 11
6 7 6 4 5 7 9 7 6 5 6 8 9 7 7 8 8 8 9 8 7 7 7 6 7 8 7 6 6 5 4 4 4 4 4 6 10 10 7 4 3 8 12 14 15 16 17 21 26 29 31 33 34 35 36 35 35 34 31 29 27 23 19 18 17 13 9 5 2 4 10 15 16 14 15 17 17 16 14 14 14 14 15 15 13 11 9
5 3 4 5 6 5 4 4 4 4 6 9 10 10 10 9 7 7 7 7 7 8 7 7 7 8 7 6 5 4 2 2 4 5 6 8 11 10 4 3 7 11 15 18 19 19 20 24 29 31 32 32 33 33 34 34 34 33 30 28 26 22 19 20 18 14 11 11 10 12 17 19 15 13 14 15 14 14 14 15 14 13 12 11 10 9 8
4 3 4 6 7 6 2 2 4 4 6 10 11 10 10 9 7 6 7 7 8 8 8 8 9 8 8 8 8 8 6 5 5 6 7 9 8 5 3 8 11 13 17 20 22 22 23 26 30 32 32 32 32 31 29 27 27 28 27 25 24 21 19 19 20 19 20 22 22 22 23 20 16 16 15 13 12 13 13 13 13 13 11 10 8 8 9
6 3 4 6 9 8 5 5 6 5 5 9 10 9 10 10 8 8 8 7 7 7 7 8 9 9 9 9 10 10 9 8 9 8 8 7 5 3 6 10 14 16 19 21 23 24 25 26 28 30 31 32 31 28 25 23 22 21 20 20 21 21 21 21 20 19 20 21 22 22 20 18 18 19 18 15 13 12 12 12 12 11 10 9 8 8 8
8 5 4 7 9 8 6 7 8 7 6 7 9 9 9 9 8 7 7 6 5 6 6 6 8 11 11 9 9 11 10 11 13 13 11 9 6 1 5 9 13 16 19 23 25 26 27 27 27 27 26 25 24 23 23 21 19 16 16 16 15 15 17 18 18 17 16 16 17 17 17 18 20 20 19 18 16 13 11 11 10 9 9 8 7 7 6
8 6 7 11 11 7 5 7 9 9 7 6 8 7 7 8 8 7 7 6 5 6 7 5 7 11 13 11 10 11 10 11 16 16 13 11 8 4 2 2 5 6 8 12 15 16 17 20 22 24 25 23 21 21 19 16 14 15 16 15 13 13 12 13 14 14 13 14 15 16 17 20 21 20 19 18 17 16 14 12 10 10 10 8 7 6 5
6 4 6 10 11 10 9 8 7 6 6 6 7 6 5 7 8 7 7 8 8 9 10 8 8 10 13 13 13 13 12 13 15 15 13 10 7 4 2 4 7 8 9 10 9 9 9 8 9 12 18 22 20 17 15 14 14 15 14 13 13 12 11 13 15 17 16 16 16 17 18 20 20 18 16 15 15 15 16 14 13 13 10 8 7 6 4
10 8 7 9 8 6 5 4 4 6 7 8 8 7 5 5 7 8 8 8 8 8 9 11 11 9 9 11 12 12 12 11 11 11 13 13 10 2 5 11 14 15 14 15 15 15 17 17 15 14 14 17 16 15 15 15 14 13 13 13 13 13 13 15 18 20 20 20 20 20 21 21 19 17 16 15 16 16 15 14 13 12 10 9 8 7 6
9 8 8 8 7 6 5 4 6 8 8 8 8 8 8 8 8 8 7 6 6 6 6 9 10 7 6 8 8 7 7 8 9 11 15 18 15 4 8 14 17 17 18 19 20 21 19 18 17 15 14 15 16 17 18 17 14 13 13 14 14 14 14 16 18 19 20 21 22 22 22 21 18 17 16 15 15 15 14 13 12 11 11 11 11 11 11
6 6 7 6 5 6 7 7 7 7 6 7 8 8 8 8 8 7 6 5 5 5 5 5 6 5 6 7 7 7 7 8 11 14 17 19 17 7 8 15 15 14 15 16 18 18 17 17 18 18 16 16 18 19 18 16 14 14 14 13 13 12 12 14 15 16 17 19 19 19 19 17 15 14 14 13 13 14 15 15 14 13 14 15 15 15 13
5 7 9 8 7 9 9 6 5 6 6 6 7 8 8 8 7 7 7 6 5 5 6 5 5 5 5 6 8 9 10 11 14 15 16 16 16 9 9 15 14 12 14 16 17 17 19 20 20 19 17 16 17 17 16 16 16 16 15 13 11 11 11 12 12 13 14 15 15 14 13 11 10 10 11 12 14 16 17 16 15 16 17 18 18 17 15
4 8 10 9 7 8 8 6 6 7 7 7 8 7 6 6 5 5 5 5 5 5 6 5 6 7 9 10 9 10 11 14 16 16 15 14 13 9 10 15 16 16 19 19 19 21 24 22 19 18 18 17 16 15 16 17 17 16 15 13 12 11 11 11 12 11 11 11 11 11 11 10 10 12 15 17 19 20 19 17 17 17 18 19 19 18 16
8 8 9 9 8 9 9 8 7 7 7 7 6 5 5 4 4 4 4 4 5 5 4 5 8 11 13 13 12 12 13 14 14 14 13 11 9 6 7 10 11 12 13 15 17 20 21 18 16 17 18 18 17 16 15 16 15 14 13 13 12 12 12 12 11 11 10 10 11 12 12 12 14 16 17 18 19 20 20 19 19 18 17 19 19 18 17
8 6 5 6 6 7 7 7 6 6 6 6 5 5 6 5 4 5 5 5 4 5 6 9 12 14 14 13 13 13 11 8 7 9 9 7 5 3 1 2 4 6 7 8 11 12 11 10 12 14 16 16 15 13 11 11 12 12 11 11 12 13 12 11 11 10 10 11 11 13 14 15 16 16 16 14 13 15 18 19 18 16 15 17 17 17 18
7 6 6 6 6 5 5 5 5 5 5 5 5 5 5 5 5 6 7 7 7 10 13 15 16 16 15 13 11 10 8 6 6 7 5 0 3 5 9 12 14 15 16 15 13 14 13 12 12 13 13 12 10 9 10 10 10 11 11 11 12 12 11 10 10 9 9 9 9 10 11 10 9 10 11 11 12 13 13 14 15 15 15 16 16 17 18
7 7 6 5 6 6 5 5 5 5 4 4 4 4 5 5 6 7 9 11 13 15 17 18 17 15 14 12 10 10 10 10 7 5 5 6 8 11 15 16 16 17 16 14 12 14 15 12 6 5 8 11 12 11 12 13 13 13 12 12 12 11 9 8 8 7 6 6 7 8 8 6 5 6 8 9 11 11 10 12 15 17 16 16 16 17 18
6 6 4 4 5 6 5 6 6 6 5 4 4 4 5 6 8 9 11 13 14 15 16 16 14 13 13 15 16 16 15 12 7 6 9 10 10 13 15 14 13 12 10 8 9 10 9 5 3 6 11 15 17 16 14 14 14 14 12 11 10 8 7 6 6 6 6 8 9 9 7 5 7 10 10 9 9 10 11 13 15 15 15 15 16 18 20
6 6 6 6 6 6 6 7 8 8 6 5 5 6 6 8 10 11 11 12 12 13 13 13 12 13 15 17 17 16 13 8 6 10 11 9 9 11 11 9 8 7 6 4 5 5 4 6 11 15 17 17 15 13 12 13 13 11 9 8 7 6 6 5 5 7 9 10 9 7 7 7 9 11 10 9 9 11 12 12 13 13 13 15 17 19 19
6 7 7 7 7 6 6 7 8 8 6 5 5 6 8 10 11 11 11 12 12 12 13 12 12 13 13 11 11 11 10 6 9 13 11 7 7 8 9 6 4 2 1 4 8 11 14 16 18 18 17 15 12 11 11 11 10 9 9 8 7 6 5 5 5 7 8 7 6 5 5 6 7 8 8 8 9 11 11 12 12 12 13 16 18 19 19
5 5 6 6 6 6 6 5 6 7 6 5 5 6 8 10 10 10 10 11 12 12 13 13 12 10 9 8 8 8 8 6 5 8 10 9 8 9 9 7 5 6 8 11 14 16 18 19 17 16 16 17 15 14 13 12 10 10 10 9 7 6 5 4 4 5 5 5 4 5 6 7 7 8 8 10 11 11 11 12 13 13 14 16 18 19 19
4 5 6 6 6 6 6 6 6 6 6 6 6 7 8 9 9 8 9 11 12 13 14 13 11 9 7 7 7 5 3 2 0 3 5 6 6 7 7 5 6 10 14 16 15 14 13 13 13 15 16 15 14 13 13 11 10 10 9 8 7 6 5 3 2 2 3 4 6 7 8 9 10 11 11 12 12 13 13 13 14 15 15 16 17 19 19
4 5 5 5 5 6 7 6 6 6 6 6 7 8 8 8 8 9 11 12 13 15 15 15 13 10 7 5 5 5 4 4 6 6 4 4 4 5 4 5 8 11 13 14 14 13 13 13 13 13 13 13 12 12 11 10 10 9 8 6 6 5 3 3 3 2 1 1 3 6 7 9 11 13 13 14 14 14 14 15 16 16 16 17 17 18 19
4 5 4 4 5 6 7 7 7 7 7 8 8 9 8 7 8 10 11 13 13 14 15 15 14 11 7 4 3 4 4 3 5 5 3 2 2 3 4 8 10 11 11 12 13 13 12 12 11 11 11 12 12 12 10 8 7 6 4 3 3 3 3 3 3 3 3 2 1 1 3 5 7 10 13 15 17 17 16 16 17 18 18 18 18 18 19
5 4 4 5 7 7 7 7 7 6 6 8 10 9 7 6 7 8 9 10 11 11 12 13 14 13 9 4 0 2 2 2 2 3 2 2 2 2 5 10 12 11 11 12 12 11 11 11 12 12 13 13 12 9 7 5 4 4 4 4 4 5 5 5 4 2 1 1 0 0 1 3 5 8 11 14 16 18 19 19 19 19 20 20 20 20 20
5 5 4 5 7 6 6 7 7 6 6 8 8 7 7 7 8 8 8 9 10 10 10 11 13 14 12 7 2 3 1 1 1 3 3 1 2 3 6 11 12 12 12 12 11 11 12 13 14 14 13 11 9 7 5 4 3 4 5 7 7 6 5 4 2 2 2 2 2 3 4 5 6 8 11 13 15 17 19 21 21 21 21 22 22 22 22
5 5 4 4 5 6 6 5 5 5 5 6 7 8 10 11 10 10 9 9 9 9 9 10 11 12 12 10 5 1 2 3 4 6 6 3 4 4 7 12 13 12 12 12 11 12 13 14 15 14 12 10 8 7 6 5 4 4 6 7 7 5 3 2 2 3 4 4 5 5 6 7 8 10 12 13 13 14 16 19 21 21 21 22 23 24 25
6 5 5 5 6 7 7 6 5 5 6 6 5 7 11 13 12 10 9 8 7 6 6 7 8 9 9 9 6 2 2 4 6 8 9 7 5 3 6 10 11 11 12 12 12 13 15 15 15 13 11 10 9 7 6 4 4 4 5 6 5 4 4 4 4 5 5 6 7 8 9 10 11 11 11 12 12 12 13 15 16 18 19 20 23 25 26
7 6 7 7 7 8 8 9 7 6 5 5 6 8 12 15 14 11 9 7 7 6 5 4 5 6 7 6 5 4 3 3 4 5 6 6 4 4 6 9 11 11 11 12 13 14 14 14 14 13 11 10 9 8 7 5 4 3 4 6 6 5 5 5 6 6 7 9 10 11 12 12 12 12 12 11 11 11 12 13 14 15 17 19 22 24 26
8 7 7 7 7 8 8 8 6 5 5 7 9 11 13 15 14 13 11 9 9 8 7 5 5 5 5 3 2 2 3 4 4 5 6 6 6 5 7 10 12 12 12 12 13 14 14 14 14 13 12 12 11 10 9 8 6 4 4 6 7 7 6 6 6 7 8 10 11 12 13 13 12 12 12 12 11 11 12 12 13 14 16 18 20 22 24
9 7 6 7 8 9 8 7 7 8 10 10 11 12 13 12 12 12 13 12 11 10 10 9 6 5 4 4 3 3 3 4 6 7 7 7 7 7 8 11 13 14 13 13 13 13 14 14 15 15 14 14 13 12 12 11 10 8 7 8 9 10 10 10 9 9 9 9 10 12 13 13 13 12 12 12 12 13 14 14 14 13 14 15 16 17 20
10 8 8 9 9 10 10 10 11 12 14 13 11 11 11 10 11 14 16 15 12 11 12 11 9 7 5 5 5 6 6 6 7 8 8 8 9 9 10 12 14 16 16 16 16 16 16 16 17 17 17 17 16 16 15 14 14 12 11 10 11 12 12 12 11 10 9 8 9 11 13 14 13 13 12 12 12 12 13 15 16 16 15 15 15 15 17
11 9 8 8 9 10 12 12 12 12 13 13 12 11 11 10 10 13 15 14 12 11 11 11 11 11 10 9 8 8 8 8 8 9 10 10 10 10 10 12 14 16 18 18 18 18 18 18 18 19 19 20 19 19 18 18 17 17 15 14 13 14 14 14 13 12 10 9 8 10 13 14 15 15 14 13 11 10 10 12 14 15 15 15 14 14 15
Wind_Direction
216 213 221 222 202 213 217 201 198 195 190 186 186 193 182 155 166 219 220 177 188 216 214 209 212 203 201 205 202 198 190 177 176 182 186 193 199 204 210 213 211 205 207 208 205 208 210 209 211 212 212 213 212 211 211 208 205 204 202 200 200 200 199 196 194 193 194 197 200 202 207 212 213 211 212 215 218 221 224 228 231 234 238 239 238 237 237
221 215 224 229 228 238 243 234 217 201 190 189 193 195 178 170 192 207 178 179 202 213 204 207 210 202 197 193 171 159 170 178 179 180 186 196 202 205 208 211 209 207 210 210 207 208 209 211 211 210 210 212 211 211 211 209 208 206 203 202 203 202 200 198 195 193 193 194 197 201 206 212 213 212 213 216 220 224 228 232 234 237 240 238 235 237 238
230 216 219 227 229 235 239 242 237 219 196 193 199 194 175 179 205 193 151 176 217 238 220 209 205 174 140 138 158 176 188 185 180 182 191 200 203 205 208 207 207 210 211 211 211 211 212 214 213 211 212 212 211 212 211 210 210 207 204 204 205 204 201 197 193 192 191 193 196 200 205 210 211 212 214 217 222 227 231 234 236 238 240 238 236 239 242
235 219 212 217 215 224 243 249 246 229 192 185 204 189 168 185 193 150 120 167 233 252 225 150 137 147 157 173 182 188 195 188 184 189 194 198 201 201 202 200 197 203 206 208 211 213 215 216 215 215 215 214 213 213 212 213 213 210 208 208 208 206 200 196 194 191 188 189 192 195 203 212 215 215 216 219 224 228 231 233 236 237 237 236 237 241 244
238 222 192 189 174 186 245 249 233 214 180 157 143 97 109 173 160 143 159 208 228 214 151 143 156 170 180 191 190 190 196 192 190 193 192 193 198 195 191 190 190 195 202 205 210 214 216 215 216 218 217 216 216 214 213 216 216 213 213 212 209 204 197 193 189 181 178 181 181 184 203 221 226 222 219 221 226 229 231 232 234 235 234 235 238 242 244
231 221 158 141 154 198 235 254 218 178 149 129 116 90 348 175 144 162 204 239 217 148 158 175 185 188 188 193 195 187 177 176 179 190 194 191 187 182 181 185 191 194 196 202 210 215 219 220 221 221 220 221 221 216 217 221 220 217 217 214 208 199 187 180 174 169 172 180 184 189 203 221 232 227 221 224 227 229 230 232 233 234 233 236 240 243 244
201 185 137 144 200 221 246 304 301 122 116 114 107 87 37 19 24 121 117 303 270 208 193 182 175 176 154 123 124 115 129 158 166 170 185 184 172 172 179 188 197 200 196 199 206 213 220 223 221 218 219 221 219 215 221 226 224 220 217 209 200 190 181 175 172 174 179 184 187 192 202 222 239 235 226 226 228 230 231 232 234 235 235 238 242 243 246
156 150 158 184 208 241 330 346 358 64 97 106 94 58 19 6 354 9 76 343 306 278 238 156 135 133 111 81 67 89 115 147 157 159 173 179 177 180 180 185 194 196 196 199 203 210 217 218 214 215 219 217 211 213 220 223 221 217 209 198 192 186 180 178 178 180 180 180 183 192 206 224 242 242 233 230 230 230 231 233 235 237 238 240 241 243 246
144 135 170 191 125 55 334 341 1 343 313 129 109 89 21 347 339 317 131 92 47 27 25 119 128 122 103 77 48 43 63 180 197 180 174 174 178 181 179 186 193 194 197 201 203 208 211 210 211 216 217 210 206 210 216 215 212 205 195 190 188 184 183 183 181 179 173 168 175 190 208 224 238 241 237 236 233 230 230 232 232 234 237 238 240 243 246
112 107 110 107 89 116 248 271 290 303 301 285 148 115 104 337 349 339 84 102 93 85 71 81 138 119 103 100 78 5 351 306 251 290 146 162 176 179 177 185 190 190 193 195 199 201 199 204 211 212 209 205 204 207 211 209 201 189 183 186 187 187 187 180 171 168 166 168 174 179 193 216 233 238 237 237 234 230 229 230 231 234 236 235 235 236 236
52 94 116 140 133 194 248 288 306 319 316 301 5 89 12 332 349 354 37 61 66 91 88 62 82 97 93 88 2 325 325 312 150 110 90 84 62 184 183 183 179 179 181 181 184 188 189 198 206 204 202 201 199 205 210 203 186 174 180 189 191 187 176 162 160 166 166 170 175 176 191 217 232 237 237 237 236 234 232 230 231 233 231 225 221 221 223
66 83 96 127 139 245 295 308 311 314 318 356 77 102 262 322 340 353 59 58 36 56 75 65 64 80 93 56 328 309 323 49 71 78 83 76 58 50 55 121 150 158 161 158 161 177 192 200 202 200 198 195 196 204 206 197 184 182 189 193 188 173 158 156 164 166 158 163 176 185 205 225 233 235 238 243 246 246 242 235 230 227 217 204 205 219 243
61 74 81 54 147 252 306 315 310 312 340 53 87 153 231 312 336 357 65 75 71 67 70 73 73 85 139 180 301 328 21 50 49 54 80 97 93 87 82 90 118 137 151 164 176 190 200 201 198 197 194 191 196 204 202 193 185 188 191 187 175 163 157 156 160 159 156 165 182 198 215 228 233 236 240 243 244 245 242 233 219 202 183 175 189 256 286
62 88 83 20 293 238 316 321 315 334 39 80 118 178 243 340 358 29 56 68 76 74 75 83 94 101 108 69 30 24 34 44 41 43 61 76 81 95 106 109 119 138 167 192 197 201 202 198 195 194 190 191 197 196 176 135 139 172 179 172 160 153 151 153 159 163 168 182 200 211 222 234 242 244 244 243 240 231 222 211 195 183 183 192 209 246 265
69 74 61 47 220 278 322 331 335 15 64 141 160 109 43 13 29 54 59 55 57 71 81 86 86 80 59 46 44 41 37 32 28 25 28 46 61 82 103 122 154 172 187 204 208 192 193 188 186 188 187 187 178 133 101 98 129 153 157 152 143 141 149 160 168 172 180 206 226 228 238 255 253 238 232 232 223 207 198 198 197 199 205 209 217 230 235
76 86 88 171 214 283 318 5 76 55 62 121 124 94 74 44 41 57 61 50 41 56 75 75 66 61 53 44 43 43 33 20 14 9 4 14 23 21 44 118 179 177 146 110 79 76 106 144 159 174 172 137 103 96 97 110 132 144 149 153 154 158 164 169 174 180 197 239 266 249 233 237 234 231 230 223 213 207 205 202 200 202 211 218 225 226 220
95 123 168 208 238 286 326 70 97 87 71 69 75 90 91 66 45 58 68 61 44 40 56 63 59 53 46 40 40 39 28 12 5 358 347 348 347 334 347 108 133 112 101 109 111 106 107 114 118 128 136 121 107 105 114 131 140 144 148 151 157 169 177 180 187 198 212 238 263 254 232 232 245 244 232 216 203 197 194 192 193 202 215 219 214 202 194
71 68 49 12 344 320 17 71 84 86 80 66 56 73 76 54 38 54 73 76 64 49 50 56 54 48 46 46 38 28 23 14 2 353 344 343 343 337 336 111 124 117 112 117 115 105 101 106 111 117 128 129 118 114 123 138 142 141 138 135 141 157 168 175 190 204 210 222 234 235 235 242 242 229 211 198 189 184 185 190 202 211 207 195 187 186 190
99 67 328 341 2 347 21 68 80 81 86 90 86 84 85 64 33 21 35 65 65 56 55 59 56 45 41 43 37 26 26 19 5 2 356 342 342 347 351 6 144 135 121 116 115 111 109 111 112 113 116 115 113 113 118 127 131 128 123 119 120 128 140 153 172 183 188 204 215 215 227 236 227 208 198 193 187 184 189 197 199 193 185 183 185 190 198
103 132 188 17 44 21 11 46 78 83 87 91 88 91 98 85 58 30 26 41 48 44 41 52 61 51 38 36 35 23 16 13 6 6 359 340 335 347 3 20 106 119 111 112 118 118 116 115 114 114 115 115 114 114 113 116 117 117 119 119 118 123 132 138 145 149 153 178 201 200 208 210 200 193 196 200 198 195 197 201 196 188 185 187 192 199 206
91 119 152 149 83 48 25 28 43 56 78 84 76 68 62 56 51 45 39 37 43 43 32 30 48 51 41 37 36 24 13 8 353 338 338 336 323 319 336 21 102 126 124 129 131 127 125 124 120 119 118 118 118 117 118 119 117 114 119 127 129 130 130 126 120 112 99 92 120 201 203 197 196 201 205 204 204 202 199 198 198 196 194 196 202 210 216
107 130 162 157 122 87 51 38 44 52 77 85 80 73 65 56 49 48 45 39 40 43 33 26 36 39 26 17 21 22 13 346 330 324 326 322 308 296 283 149 154 151 145 142 138 133 132 130 126 124 125 124 122 120 121 123 121 120 123 129 132 136 140 141 144 150 156 160 180 211 213 207 209 213 204 197 196 194 190 189 190 192 196 201 207 214 221
127 164 159 134 117 107 90 61 62 64 76 82 83 84 84 82 75 67 65 54 42 35 24 20 27 24 11 7 9 8 1 349 339 319 293 281 280 272 197 162 156 149 147 148 144 141 142 139 133 131 131 132 131 128 127 128 130 134 138 139 143 156 170 173 173 179 183 186 194 207 211 211 209 201 187 178 179 182 182 182 184 189 196 201 208 217 223
108 129 137 118 108 105 98 78 66 53 65 84 88 85 85 85 79 70 70 66 58 50 30 17 20 20 14 11 11 7 1 354 348 326 294 281 276 242 199 179 166 157 155 155 151 149 150 145 139 137 137 138 140 141 144 147 148 149 155 158 164 179 193 193 188 188 195 200 202 203 204 203 199 192 181 170 166 170 177 182 187 192 198 202 209 215 219
105 113 111 99 99 105 109 91 66 43 36 66 80 79 79 83 84 81 80 80 79 72 54 29 19 20 20 17 13 9 2 355 353 347 336 338 348 293 193 187 179 172 166 161 157 155 154 151 146 143 142 143 149 156 162 166 165 170 182 189 194 203 206 199 194 197 205 209 207 203 200 196 193 190 185 179 175 174 178 185 190 195 199 201 203 204 206
103 114 90 74 66 60 70 69 50 31 22 45 67 70 68 77 86 88 84 83 80 74 69 54 26 22 22 17 10 7 1 356 357 357 353 354 8 39 81 192 195 175 148 141 142 144 147 150 154 154 155 159 169 179 188 195 195 197 207 221 234 239 232 219 215 219 224 224 220 213 206 201 196 191 189 188 186 183 181 184 189 193 193 192 190 191 194
57 56 68 70 57 39 40 52 47 32 27 44 61 64 67 82 89 85 75 69 62 56 53 47 37 30 23 15 7 4 1 358 358 357 354 351 359 27 85 145 144 123 103 101 101 104 123 156 192 192 179 178 187 198 207 209 204 204 217 234 237 233 229 228 231 235 237 236 231 222 211 203 197 191 187 191 197 198 197 195 190 185 182 183 185 187 184
47 39 55 83 87 72 63 68 65 53 44 42 51 57 59 68 65 55 47 41 37 39 37 30 28 29 20 11 6 359 356 355 352 346 338 333 332 344 138 138 135 131 127 131 142 153 164 185 219 236 215 202 204 206 200 195 196 206 222 229 223 219 220 224 230 235 237 235 232 225 214 205 199 195 194 202 209 211 207 200 190 184 182 184 184 181 176
54 51 60 78 104 125 120 76 50 46 41 37 41 43 42 44 42 36 29 21 18 22 22 17 17 17 10 6 3 353 346 343 338 329 323 321 321 308 156 146 142 143 145 152 166 178 185 198 217 231 228 216 207 198 197 201 206 210 210 208 208 210 214 219 225 229 227 224 222 218 210 203 198 196 198 206 213 210 202 196 193 190 190 191 188 184 180
62 65 71 71 72 80 74 56 44 41 35 33 40 40 37 38 36 25 14 9 11 13 8 1 360 358 355 355 352 343 329 317 315 317 317 318 320 303 177 154 143 146 159 172 182 189 196 207 216 220 219 213 204 202 205 206 198 188 184 186 190 194 198 203 207 207 206 206 206 205 201 197 195 196 201 209 213 208 203 199 197 195 196 195 192 191 190
94 73 67 61 53 56 59 52 43 39 30 29 36 33 27 27 25 10 358 357 359 358 354 347 340 336 335 335 335 335 329 320 318 319 320 322 322 301 203 172 157 160 177 186 191 194 199 208 212 208 199 192 190 192 191 185 179 177 179 183 186 188 190 193 193 193 193 194 193 192 190 187 191 205 215 217 213 208 205 201 197 198 199 197 196 199 200
92 55 46 42 40 44 44 35 28 25 18 20 28 26 16 11 4 347 339 344 341 335 334 334 326 320 322 325 328 333 335 330 324 321 321 324 323 298 227 200 190 185 185 191 199 201 201 201 196 186 178 172 171 174 176 177 181 183 184 186 187 185 184 188 190 192 195 195 194 193 192 197 210 220 220 217 212 208 204 200 197 199 201 201 203 206 204
58 41 25 19 20 24 23 17 14 11 7 8 13 7 350 347 350 340 331 330 327 323 320 315 312 314 321 327 330 335 337 333 324 320 325 332 331 306 250 229 217 201 197 206 209 200 192 182 170 165 165 165 167 174 181 185 188 188 186 187 184 177 175 180 183 185 190 198 202 203 209 222 230 225 218 214 212 207 203 200 200 202 204 207 210 210 206
64 66 39 22 22 18 8 0 358 357 356 356 357 352 348 347 343 332 327 326 324 316 309 306 308 313 318 321 322 325 328 327 316 315 325 343 4 24 90 153 141 123 128 147 154 148 137 128 135 148 157 162 168 176 184 188 188 183 177 175 171 166 167 173 178 181 188 196 204 213 223 229 226 214 207 211 216 211 203 199 199 201 205 208 212 210 205
51 54 39 24 21 17 9 1 353 344 340 341 341 341 340 333 324 321 321 317 312 311 310 311 313 315 314 310 309 309 306 298 291 290 289 310 103 109 112 108 100 93 89 92 104 117 120 120 125 134 140 146 153 159 164 167 166 160 156 158 160 161 165 171 175 182 191 199 210 220 220 213 200 194 199 208 214 212 207 202 204 208 208 207 207 206 202
32 36 26 12 9 8 5 1 350 339 333 323 311 307 310 309 308 309 309 308 310 313 314 315 317 317 312 305 301 297 295 294 283 249 199 164 147 138 127 115 109 106 103 100 112 129 132 129 123 133 145 146 145 145 147 148 146 143 143 146 146 148 155 164 172 184 196 200 200 195 178 151 153 194 206 203 198 199 204 210 213 214 210 207 204 200 196
22 28 20 3 359 357 352 348 341 333 324 312 303 299 297 301 306 313 315 315 316 318 317 316 315 310 302 299 298 297 297 296 278 209 177 158 140 130 121 114 110 105 98 101 120 126 121 122 175 179 152 136 131 132 135 136 134 131 130 130 132 138 150 163 174 184 181 172 173 180 183 193 213 215 212 209 208 209 210 211 211 210 209 208 204 197 193
20 22 15 1 355 350 345 342 340 335 326 315 313 314 312 314 321 328 329 326 325 325 321 317 311 301 295 296 299 297 291 274 214 180 166 148 128 117 108 102 100 87 68 83 123 129 135 150 150 140 127 117 116 122 128 127 125 122 120 122 129 138 148 158 165 167 166 167 177 198 224 240 235 226 223 224 217 207 201 202 205 207 207 204 199 195 195
22 18 13 7 3 356 346 342 344 345 342 332 322 322 326 331 336 338 334 332 334 335 330 326 322 314 304 302 305 303 295 255 189 171 158 138 119 111 104 104 118 127 180 192 176 165 160 154 145 137 134 136 139 139 132 125 124 127 130 131 130 131 136 144 153 160 167 178 194 212 223 230 233 234 233 223 206 197 200 208 214 213 208 202 199 199 200
17 7 2 360 357 349 340 335 337 341 344 343 330 324 328 334 338 338 332 330 335 340 338 333 330 327 322 324 326 321 311 289 221 169 144 129 119 105 94 95 118 138 152 166 166 156 148 143 136 133 137 140 138 132 127 123 125 131 135 135 134 131 128 133 153 172 187 203 211 212 215 220 223 226 226 220 213 210 211 213 214 212 208 203 202 203 203
11 1 355 350 345 340 335 328 326 332 342 343 335 331 336 341 340 335 329 329 336 345 346 340 336 338 345 352 356 350 326 308 17 94 85 87 95 91 86 104 134 136 139 150 156 151 143 140 138 136 134 132 127 124 124 125 128 130 130 129 126 122 115 109 124 178 224 231 228 227 228 226 223 223 224 224 224 222 216 212 213 214 212 209 207 206 204
4 360 355 344 337 340 339 331 323 324 328 334 337 340 344 348 344 337 335 338 342 345 344 341 341 345 350 4 30 42 43 71 93 86 56 44 80 95 111 145 143 130 132 148 161 162 156 150 145 137 131 127 127 131 135 138 138 134 128 122 120 118 115 110 107 109 136 214 231 239 241 239 236 234 232 232 233 232 226 220 218 219 220 219 217 213 208
349 352 351 336 328 333 336 329 319 312 313 325 338 342 341 343 344 339 338 341 343 339 335 336 342 351 357 6 49 62 56 75 107 111 101 91 108 135 163 159 146 139 150 167 175 172 163 154 147 142 138 138 141 142 141 140 141 144 147 143 134 133 143 141 129 119 116 115 129 199 243 256 257 253 248 245 244 242 237 230 227 228 229 229 227 222 216
337 344 344 330 322 321 319 315 314 310 309 319 331 337 337 341 344 339 332 331 331 329 329 332 339 351 1 359 205 137 93 77 107 112 82 34 355 277 193 172 164 169 180 184 182 176 166 158 152 148 146 146 146 143 137 133 145 167 176 168 152 146 150 150 142 137 149 168 319 327 322 316 304 291 280 268 258 250 244 239 235 234 233 233 233 230 225
344 354 351 334 321 312 302 295 293 291 298 314 332 350 359 356 350 343 337 331 326 329 336 338 339 347 356 355 299 203 193 266 198 161 139 71 334 267 200 185 184 189 191 189 186 180 170 161 156 156 157 157 154 147 138 134 142 157 163 159 155 153 155 158 168 202 236 275 307 317 322 324 318 309 300 288 274 261 252 246 243 241 238 235 234 233 229
345 352 356 342 321 310 303 296 293 304 328 348 1 6 6 2 357 350 346 342 335 335 340 341 338 343 352 355 347 259 229 240 223 205 205 250 300 270 205 192 193 196 193 188 184 178 170 165 166 169 172 171 166 159 151 143 145 162 173 173 172 174 185 207 238 246 251 269 291 305 315 320 318 314 306 295 283 271 259 250 248 248 244 239 237 235 232
337 337 340 339 331 325 329 338 347 359 14 20 5 347 348 353 353 350 348 348 346 344 345 344 343 348 355 358 353 318 235 215 214 222 234 256 284 269 204 192 195 198 196 192 188 183 178 178 182 186 187 185 182 182 178 168 164 179 196 200 205 221 250 271 276 270 268 279 291 301 307 310 310 310 310 305 294 281 266 254 249 248 246 242 239 235 229
326 315 315 324 331 334 340 348 353 359 6 1 342 337 343 346 345 343 347 351 348 347 348 339 333 339 349 355 351 325 278 237 222 239 257 267 270 245 211 199 199 203 202 197 193 192 191 192 195 198 199 200 203 206 207 205 205 215 225 228 231 242 260 271 274 273 274 279 283 288 293 299 302 304 306 304 295 281 267 255 248 245 246 246 243 237 229
325 306 295 301 316 328 336 340 336 326 332 343 345 343 343 341 338 339 345 346 341 337 339 338 329 325 327 328 322 300 271 251 248 269 289 291 278 254 225 208 206 210 212 207 202 203 205 207 208 211 215 220 224 227 229 230 234 246 253 248 246 251 260 268 271 273 274 274 275 276 279 284 292 299 302 300 289 275 263 255 251 250 253 254 250 242 234
330 313 289 285 296 307 313 313 308 308 317 329 336 336 336 334 327 324 329 334 330 323 324 329 331 328 318 300 278 263 257 253 254 264 277 282 275 260 240 224 218 220 223 223 220 219 217 216 217 220 225 230 233 236 238 240 242 248 258 259 255 252 255 259 262 263 263 266 267 268 268 272 281 290 297 297 287 272 258 249 249 254 256 255 250 242 234
325 312 294 288 292 298 304 308 308 308 310 314 318 320 322 318 308 305 312 318 317 310 312 320 327 329 326 316 299 283 274 270 268 269 270 272 270 262 248 236 229 227 229 231 232 230 227 226 227 227 230 235 240 242 243 244 245 247 252 257 255 251 249 252 257 261 260 258 260 261 262 263 269 276 283 287 286 277 262 251 248 247 244 239 235 232 228
333 320 306 303 305 311 316 318 314 308 307 309 310 308 305 301 294 295 301 306 303 293 291 298 308 314 318 317 309 294 281 277 277 276 272 270 269 265 256 246 239 235 234 236 239 239 238 238 238 237 237 240 243 244 244 245 245 246 248 250 252 253 251 251 254 259 261 260 261 265 262 257 257 263 268 271 272 271 266 258 251 244 236 229 225 223 222